Flag for Germany Weather past 2 weeks in Altenburg, Thuringia, Germany

Now
57 °F

Scattered clouds.


Feels Like: 56 °F
Forecast: 43 / 60 °F
Wind: 6 mph from West

Location: Altenburg Nobitz

Current Time: Sep 23, 2014 at 3:27:59 PM

Latest Report: Sep 23, 2014 at 2:50 PM


Visibility: N/A

Pressure: 30.12 "Hg

Humidity: 55%

Dew point: 41 °F

Location of AltenburgLocation

Historic Weather in Altenburg — Graph

°F

Altenburg temperature yesterday

Maximum temperature yesterday: 57 °F (at 12:20 PM)
Minimum temperature yesterday: 48 °F (at 1:50 PM)
Average temperature yesterday: 52 °F

Past Weeks' High & Low Weather Summary

 TemperatureHumidityPressure
High75 °F (Sep 16, 1:50 PM)100% (Sep 12, 8:20 AM)30.15 "Hg (Sep 12, 8:20 AM)
Low48 °F (Sep 22, 1:50 PM)50% (Sep 16, 2:50 PM)29.89 "Hg (Sep 19, 3:50 PM)
Average63 °F79%30.01 "Hg
* Reported Sep 8 2:20 PM — Sep 23 2:20 PM, Altenburg, Weather by CustomWeather, © 2014

Note: Actual official high and low records may vary slightly from our data, if they occured in-between our weather recording intervals... More about our weather records

Advertising

Altenburg weather history for previous 24 hours

 ConditionsComfort  
Time TempWeatherWind HumidityBarometerVisibility
2:20 PM
Sep 23
57 °FScattered clouds.9 mph63%30.12 "HgN/A
1:50 PM57 °FScattered clouds.10 mph59%30.12 "HgN/A
1:20 PM57 °FPartly sunny.10 mph63%30.12 "HgN/A
12:50 PM55 °FPartly sunny.9 mph67%30.12 "HgN/A
12:20 PM54 °FPartly sunny.9 mph72%30.15 "HgN/A
11:50 AM54 °FPartly sunny.7 mph72%30.12 "HgN/A
11:20 AM52 °FPartly sunny.8 mph77%30.15 "HgN/A
10:50 AM52 °FPartly sunny.8 mph77%30.12 "HgN/A
10:20 AM52 °FPartly sunny.7 mph82%30.12 "HgN/A
9:50 AM50 °FScattered clouds.7 mph88%30.12 "HgN/A
9:20 AM50 °FPartly sunny.6 mph88%30.12 "HgN/A
8:50 AM50 °FPartly sunny.6 mph88%30.12 "HgN/A
8:20 AM50 °FPartly sunny.7 mph88%30.09 "HgN/A
7:50 PM
Sep 22
50 °FScattered clouds.13 mph76%29.98 "HgN/A
7:20 PM50 °FScattered clouds.8 mph88%29.98 "HgN/A
6:50 PM50 °FSunny.8 mph88%29.95 "Hg10 mi
6:20 PM50 °FSunny.6 mph82%29.95 "Hg10 mi
5:50 PM50 °FSunny.8 mph82%29.95 "Hg10 mi
5:20 PM50 °FScattered clouds.8 mph82%29.92 "HgN/A
4:50 PM50 °FLight rain. Scattered clouds.8 mph82%29.92 "HgN/A
4:20 PM52 °FPassing clouds.10 mph77%29.92 "HgN/A
3:50 PM52 °FPassing clouds.12 mph72%29.92 "HgN/A
3:20 PM50 °FScattered clouds.9 mph76%29.92 "HgN/A
Weather by CustomWeather, © 2014

See weather overviewHow to use our weather pages